| time (UTC) | temp C | wind direction | speed KPH | gust KPH | rain 1hr cm | rain 24hr cm | rain mn cm | humidity % | barometer mb |
| 20260508044011 | 9 | 196 | 0.0 | 1.6 | 0.00 | 1.85 | 0.00 | 96 | 1001.6 |
| 20260508043507 | 9 | 196 | 0.0 | 1.6 | 0.00 | 1.85 | 0.00 | 96 | 1001.6 |
| 20260508043103 | 9 | 196 | 0.0 | 1.6 | 0.00 | 1.85 | 0.00 | 96 | 1001.6 |
| 20260508042513 | 9 | 185 | 0.0 | 0.0 | 0.00 | 1.85 | 0.00 | 96 | 1001.7 |
| 20260508042004 | 9 | 185 | 0.0 | 0.0 | 0.00 | 1.85 | 0.00 | 96 | 1001.8 |
| 20260508041514 | 9 | 185 | 0.0 | 0.0 | 0.00 | 1.85 | 0.00 | 96 | 1001.7 |
| 20260508041004 | 9 | 185 | 0.0 | 0.0 | 0.00 | 1.85 | 0.00 | 96 | 1001.7 |
| 20260508040510 | 9 | 185 | 0.0 | 0.0 | 0.00 | 1.85 | 0.00 | 96 | 1001.7 |
| 20260508040005 | 9 | 185 | 0.0 | 0.0 | 0.00 | 1.85 | 0.00 | 96 | 1001.9 |
| 20260508035509 | 9 | 185 | 0.0 | 0.0 | 0.00 | 1.85 | 0.00 | 96 | 1002.0 |
| 20260508034511 | 9 | 185 | 0.0 | 0.0 | 0.00 | 1.85 | 0.00 | 95 | 1002.1 |
| 20260508033507 | 9 | 185 | 0.0 | 1.6 | 0.00 | 1.85 | 0.00 | 95 | 1002.1 |
| 20260508033006 | 9 | 185 | 0.0 | 1.6 | 0.00 | 1.85 | 0.00 | 95 | 1002.1 |
| 20260508032508 | 9 | 197 | 0.0 | 1.6 | 0.00 | 1.85 | 0.00 | 95 | 1002.1 |
| 20260508032004 | 9 | 206 | 0.0 | 4.8 | 0.00 | 1.85 | 0.00 | 95 | 1002.1 |
| 20260508031512 | 9 | 170 | 1.6 | 4.8 | 0.00 | 1.85 | 0.00 | 95 | 1002.3 |
| 20260508031005 | 9 | 213 | 1.6 | 4.8 | 0.00 | 1.85 | 0.00 | 95 | 1002.2 |
| 20260508030511 | 9 | 209 | 0.0 | 3.2 | 0.00 | 1.85 | 0.00 | 95 | 1002.2 |
| 20260508030005 | 9 | 161 | 0.0 | 3.2 | 0.00 | 1.85 | 0.00 | 95 | 1002.3 |
| 20260508025511 | 8 | 171 | 0.0 | 3.2 | 0.00 | 1.85 | 1.85 | 95 | 1002.4 |
| 20260508025002 | 9 | 192 | 0.0 | 6.4 | 0.00 | 1.85 | 1.85 | 95 | 1002.0 |
| 20260508024508 | 9 | 175 | 3.2 | 9.7 | 0.00 | 1.85 | 1.85 | 95 | 1002.1 |
| 20260508024003 | 9 | 200 | 4.8 | 9.7 | 0.00 | 1.85 | 1.85 | 95 | 1001.8 |
| 20260508023510 | 9 | 211 | 3.2 | 8.0 | 0.00 | 1.85 | 1.85 | 95 | 1001.9 |
| 20260508023004 | 9 | 195 | 3.2 | 8.0 | 0.00 | 1.85 | 1.85 | 95 | 1001.8 |
| 20260508022509 | 9 | 211 | 4.8 | 8.0 | 0.00 | 1.85 | 1.85 | 95 | 1001.9 |
| 20260508022005 | 9 | 230 | 3.2 | 6.4 | 0.00 | 1.85 | 1.85 | 95 | 1002.0 |
| 20260508021509 | 9 | 207 | 3.2 | 6.4 | 0.00 | 1.85 | 1.85 | 95 | 1001.8 |
| 20260508021005 | 9 | 218 | 3.2 | 6.4 | 0.00 | 1.85 | 1.85 | 95 | 1001.7 |
| 20260508020510 | 9 | 211 | 1.6 | 9.7 | 0.00 | 1.85 | 1.85 | 95 | 1002.0 |
| 20260508020005 | 9 | 220 | 4.8 | 9.7 | 0.00 | 1.85 | 1.85 | 95 | 1002.0 |
| 20260508015604 | 9 | 217 | 4.8 | 9.7 | 0.00 | 1.85 | 1.85 | 95 | 1002.0 |
| 20260508015004 | 9 | 191 | 1.6 | 9.7 | 0.00 | 1.85 | 1.85 | 95 | 1002.0 |
| 20260508014511 | 9 | 226 | 4.8 | 9.7 | 0.00 | 1.85 | 1.85 | 95 | 1002.1 |
| 20260508014007 | 9 | 170 | 4.8 | 9.7 | 0.00 | 1.85 | 1.85 | 95 | 1002.1 |
| 20260508013606 | 9 | 250 | 1.6 | 6.4 | 0.00 | 1.85 | 1.85 | 95 | 1002.0 |
| 20260508013006 | 8 | 163 | 3.2 | 6.4 | 0.00 | 1.85 | 1.85 | 95 | 1001.9 |
| 20260508012503 | 8 | 143 | 1.6 | 6.4 | 0.00 | 1.85 | 1.85 | 95 | 1001.8 |
| 20260508012007 | 8 | 167 | 1.6 | 6.4 | 0.00 | 1.85 | 1.85 | 95 | 1001.7 |
| 20260508011504 | 8 | 217 | 3.2 | 9.7 | 0.00 | 1.85 | 1.85 | 95 | 1002.0 |
| 20260508011007 | 8 | 147 | 1.6 | 9.7 | 0.00 | 1.85 | 1.85 | 95 | 1001.9 |
| 20260508010503 | 8 | 144 | 4.8 | 12.9 | 0.00 | 1.85 | 1.85 | 95 | 1002.0 |
| 20260508010019 | 8 | 152 | 3.2 | 12.9 | 0.00 | 1.85 | 1.85 | 94 | 1002.2 |
| 20260508005504 | 8 | 142 | 4.8 | 12.9 | 0.00 | 1.85 | 1.85 | 95 | 1002.5 |
| 20260508005004 | 8 | 192 | 6.4 | 12.9 | 0.00 | 1.85 | 1.85 | 94 | 1002.4 |
| 20260508004518 | 9 | 149 | 3.2 | 9.7 | 0.00 | 1.85 | 1.85 | 94 | 1002.3 |
| 20260508004005 | 9 | 165 | 3.2 | 9.7 | 0.00 | 1.85 | 1.85 | 94 | 1002.4 |
| 20260508003509 | 8 | 152 | 4.8 | 9.7 | 0.00 | 1.85 | 1.85 | 94 | 1002.3 |
| 20260508003007 | 8 | 206 | 3.2 | 6.4 | 0.00 | 1.85 | 1.85 | 94 | 1002.1 |
| 20260508002604 | 9 | 172 | 3.2 | 6.4 | 0.00 | 1.85 | 1.85 | 94 | 1002.1 |
| 20260508002007 | 9 | 187 | 0.0 | 8.0 | 0.00 | 1.85 | 1.85 | 94 | 1002.2 |
| 20260508001505 | 9 | 174 | 3.2 | 9.7 | 0.00 | 1.85 | 1.85 | 94 | 1002.3 |
| 20260508001008 | 9 | 201 | 3.2 | 9.7 | 0.00 | 1.85 | 1.85 | 94 | 1002.2 |
| 20260508000503 | 9 | 215 | 4.8 | 9.7 | 0.00 | 1.85 | 1.85 | 94 | 1002.5 |
| 20260508000008 | 9 | 163 | 4.8 | 9.7 | 0.00 | 1.85 | 1.85 | 94 | 1002.8 |
| 20260507235504 | 9 | 169 | 4.8 | 9.7 | 0.00 | 1.85 | 1.85 | 94 | 1002.7 |
| 20260507235113 | 9 | 149 | 3.2 | 9.7 | 0.00 | 1.85 | 1.85 | 94 | 1002.6 |
| 20260507234613 | 9 | 199 | 4.8 | 12.9 | 0.03 | 1.85 | 1.85 | 94 | 1002.3 |
| 20260507234006 | 9 | 175 | 4.8 | 12.9 | 0.03 | 1.85 | 1.85 | 94 | 1002.5 |
| 20260507233603 | 9 | 170 | 3.2 | 14.5 | 0.03 | 1.85 | 1.85 | 94 | 1002.6 |
| 20260507233007 | 9 | 153 | 8.0 | 14.5 | 0.03 | 1.85 | 1.85 | 94 | 1002.7 |
| 20260507232502 | 9 | 161 | 6.4 | 14.5 | 0.03 | 1.85 | 1.85 | 94 | 1002.6 |
| 20260507232008 | 9 | 144 | 6.4 | 14.5 | 0.03 | 1.85 | 1.85 | 94 | 1002.8 |
| 20260507231504 | 9 | 213 | 4.8 | 12.9 | 0.03 | 1.85 | 1.85 | 94 | 1002.8 |
| 20260507231008 | 9 | 168 | 6.4 | 16.1 | 0.03 | 1.85 | 1.85 | 94 | 1003.0 |
| 20260507230504 | 9 | 151 | 9.7 | 16.1 | 0.03 | 1.85 | 1.85 | 94 | 1003.0 |
| 20260507230008 | 9 | 192 | 6.4 | 9.7 | 0.03 | 1.85 | 1.85 | 94 | 1002.9 |
| 20260507225505 | 9 | 180 | 3.2 | 9.7 | 0.03 | 1.85 | 1.85 | 94 | 1002.6 |
| 20260507225013 | 9 | 157 | 3.2 | 12.9 | 0.03 | 1.85 | 1.85 | 94 | 1002.6 |
| 20260507224514 | 9 | 157 | 4.8 | 11.3 | 0.00 | 1.83 | 1.83 | 93 | 1003.0 |
| 20260507224005 | 9 | 165 | 4.8 | 11.3 | 0.00 | 1.83 | 1.83 | 93 | 1003.0 |
| 20260507223513 | 9 | 148 | 4.8 | 11.3 | 0.00 | 1.83 | 1.83 | 93 | 1003.0 |
| 20260507223007 | 9 | 173 | 4.8 | 14.5 | 0.00 | 1.83 | 1.83 | 93 | 1003.0 |
| 20260507222604 | 9 | 174 | 6.4 | 17.7 | 0.00 | 1.83 | 1.83 | 93 | 1002.7 |
| 20260507222009 | 9 | 154 | 8.0 | 22.5 | 0.00 | 1.83 | 1.83 | 93 | 1002.9 |
| 20260507221505 | 9 | 167 | 11.3 | 22.5 | 0.00 | 1.83 | 1.83 | 93 | 1003.0 |
| 20260507221009 | 10 | 189 | 11.3 | 19.3 | 0.00 | 1.83 | 1.83 | 92 | 1002.9 |
| 20260507220505 | 10 | 164 | 9.7 | 25.7 | 0.00 | 1.83 | 1.83 | 92 | 1003.1 |
| 20260507220010 | 10 | 155 | 17.7 | 25.7 | 0.00 | 1.83 | 1.83 | 92 | 1002.9 |
| 20260507215505 | 10 | 204 | 12.9 | 25.7 | 0.03 | 1.83 | 1.83 | 93 | 1002.8 |
| 20260507215010 | 10 | 146 | 12.9 | 25.7 | 0.03 | 1.83 | 1.83 | 93 | 1002.9 |
| 20260507214006 | 9 | 139 | 16.1 | 27.4 | 0.13 | 1.83 | 1.83 | 92 | 1002.7 |
| 20260507213504 | 9 | 118 | 12.9 | 37.0 | 0.18 | 1.83 | 1.83 | 92 | 1002.5 |
| 20260507213008 | 9 | 115 | 19.3 | 37.0 | 0.23 | 1.83 | 1.83 | 92 | 1002.4 |
| 20260507212503 | 9 | 126 | 17.7 | 43.5 | 0.30 | 1.83 | 1.83 | 92 | 1001.9 |
| 20260507212008 | 9 | 114 | 24.1 | 43.5 | 0.38 | 1.83 | 1.83 | 92 | 1001.6 |
| 20260507211503 | 9 | 183 | 17.7 | 33.8 | 0.43 | 1.83 | 1.83 | 92 | 1002.1 |
| 20260507211007 | 9 | 156 | 11.3 | 24.1 | 0.51 | 1.83 | 1.83 | 92 | 1002.4 |
| 20260507210005 | 9 | 119 | 14.5 | 29.0 | 0.66 | 1.83 | 1.83 | 92 | 1003.1 |
| 20260507205511 | 10 | 141 | 12.9 | 29.0 | 0.71 | 1.83 | 1.83 | 92 | 1003.2 |
| 20260507205106 | 10 | 138 | 16.1 | 30.6 | 0.79 | 1.83 | 1.83 | 92 | 1003.4 |
| 20260507204503 | 10 | 168 | 17.7 | 30.6 | 0.86 | 1.75 | 1.75 | 91 | 1003.5 |
| 20260507204007 | 10 | 133 | 12.9 | 29.0 | 0.86 | 1.70 | 1.70 | 92 | 1003.9 |
| 20260507203604 | 10 | 139 | 16.1 | 29.0 | 0.89 | 1.65 | 1.65 | 92 | 1003.7 |
| 20260507203007 | 10 | 145 | 12.9 | 25.7 | 0.97 | 1.60 | 1.60 | 92 | 1003.9 |
| 20260507202502 | 10 | 194 | 14.5 | 27.4 | 0.94 | 1.52 | 1.52 | 92 | 1004.3 |
| 20260507202007 | 10 | 175 | 11.3 | 27.4 | 0.89 | 1.42 | 1.42 | 92 | 1004.6 |
| 20260507201603 | 10 | 199 | 12.9 | 27.4 | 0.89 | 1.40 | 1.40 | 92 | 1004.6 |
| 20260507201007 | 10 | 206 | 8.0 | 22.5 | 0.81 | 1.32 | 1.32 | 92 | 1004.9 |
| 20260507200603 | 10 | 239 | 12.9 | 24.1 | 0.81 | 1.27 | 1.27 | 92 | 1005.0 |
| 20260507200007 | 10 | 159 | 14.5 | 24.1 | 0.71 | 1.17 | 1.17 | 92 | 1005.0 |
| 20260507195505 | 11 | 166 | 9.7 | 27.4 | 0.69 | 1.07 | 1.07 | 92 | 1004.5 |
| 20260507195111 | 10 | 143 | 11.3 | 30.6 | 0.66 | 0.99 | 0.99 | 92 | 1004.6 |
| 20260507194503 | 11 | 138 | 17.7 | 30.6 | 0.61 | 0.89 | 0.89 | 92 | 1004.7 |
| 20260507194008 | 11 | 150 | 12.9 | 32.2 | 0.56 | 0.81 | 0.81 | 92 | 1004.6 |
| 20260507193504 | 11 | 171 | 12.9 | 35.4 | 0.51 | 0.71 | 0.71 | 92 | 1004.6 |
| 20260507193009 | 11 | 126 | 19.3 | 35.4 | 0.43 | 0.64 | 0.64 | 92 | 1004.7 |
| 20260507192503 | 11 | 183 | 19.3 | 37.0 | 0.33 | 0.56 | 0.56 | 91 | 1004.8 |
| 20260507192009 | 11 | 112 | 22.5 | 37.0 | 0.33 | 0.53 | 0.53 | 91 | 1004.8 |
| 20260507191504 | 11 | 196 | 16.1 | 30.6 | 0.33 | 0.51 | 0.51 | 91 | 1005.1 |
| 20260507191006 | 11 | 180 | 12.9 | 29.0 | 0.33 | 0.51 | 0.51 | 92 | 1005.1 |
| 20260507190010 | 11 | 163 | 16.1 | 27.4 | 0.25 | 0.43 | 0.43 | 91 | 1005.4 |
| 20260507185602 | 11 | 147 | 12.9 | 27.4 | 0.23 | 0.38 | 0.38 | 92 | 1005.6 |
| 20260507185007 | 11 | 170 | 11.3 | 25.7 | 0.15 | 0.33 | 0.33 | 91 | 1005.8 |
| 20260507184603 | 11 | 171 | 12.9 | 25.7 | 0.15 | 0.30 | 0.30 | 92 | 1005.8 |
| 20260507184007 | 11 | 163 | 8.0 | 24.1 | 0.10 | 0.25 | 0.25 | 91 | 1005.8 |
| 20260507183502 | 11 | 149 | 12.9 | 30.6 | 0.05 | 0.23 | 0.23 | 91 | 1005.8 |
| 20260507183019 | 11 | 170 | 19.3 | 30.6 | 0.05 | 0.23 | 0.23 | 91 | 1005.7 |
| 20260507182504 | 11 | 165 | 17.7 | 33.8 | 0.05 | 0.23 | 0.23 | 91 | 1005.5 |
| 20260507182008 | 11 | 159 | 24.1 | 35.4 | 0.05 | 0.20 | 0.20 | 90 | 1005.5 |
| 20260507181511 | 11 | 132 | 16.1 | 37.0 | 0.03 | 0.18 | 0.18 | 90 | 1005.4 |
| 20260507181005 | 11 | 142 | 24.1 | 37.0 | 0.03 | 0.18 | 0.18 | 90 | 1005.2 |
| 20260507180509 | 11 | 133 | 22.5 | 37.0 | 0.00 | 0.15 | 0.15 | 90 | 1005.2 |
| 20260507180004 | 11 | 216 | 24.1 | 38.6 | 0.00 | 0.15 | 0.15 | 89 | 1005.2 |
| 20260507175511 | 11 | 121 | 19.3 | 38.6 | 0.00 | 0.15 | 0.15 | 89 | 1005.4 |
| 20260507175003 | 11 | 149 | 24.1 | 43.5 | 0.00 | 0.15 | 0.15 | 88 | 1005.4 |
| 20260507174511 | 12 | 123 | 25.7 | 43.5 | 0.00 | 0.15 | 0.15 | 88 | 1005.5 |
| 20260507174103 | 12 | 136 | 24.1 | 40.2 | 0.00 | 0.15 | 0.15 | 87 | 1005.6 |
| 20260507173505 | 12 | 149 | 22.5 | 40.2 | 0.00 | 0.15 | 0.15 | 86 | 1005.7 |
| 20260507172507 | 12 | 143 | 17.7 | 33.8 | 0.00 | 0.15 | 0.15 | 86 | 1006.1 |
| 20260507172103 | 12 | 159 | 22.5 | 33.8 | 0.00 | 0.15 | 0.15 | 86 | 1005.9 |
| 20260507171506 | 12 | 160 | 17.7 | 35.4 | 0.00 | 0.15 | 0.15 | 86 | 1005.8 |
| 20260507171012 | 12 | 148 | 19.3 | 40.2 | 0.00 | 0.15 | 0.15 | 87 | 1005.9 |
| 20260507170506 | 12 | 157 | 20.9 | 40.2 | 0.00 | 0.15 | 0.15 | 87 | 1006.1 |
| 20260507170009 | 12 | 164 | 20.9 | 37.0 | 0.00 | 0.15 | 0.15 | 87 | 1006.2 |
| 20260507165504 | 12 | 141 | 20.9 | 38.6 | 0.00 | 0.15 | 0.15 | 87 | 1006.5 |
| 20260507165008 | 12 | 132 | 20.9 | 40.2 | 0.00 | 0.15 | 0.15 | 87 | 1006.8 |
| 20260507164504 | 12 | 147 | 19.3 | 40.2 | 0.00 | 0.15 | 0.15 | 87 | 1006.7 |
| 20260507164009 | 12 | 156 | 20.9 | 37.0 | 0.00 | 0.15 | 0.15 | 86 | 1006.9 |
| 20260507163505 | 12 | 165 | 19.3 | 40.2 | 0.00 | 0.15 | 0.15 | 87 | 1007.0 |
| 20260507163011 | 12 | 128 | 20.9 | 43.5 | 0.00 | 0.15 | 0.15 | 87 | 1007.0 |
| 20260507162506 | 12 | 171 | 24.1 | 43.5 | 0.00 | 0.15 | 0.15 | 86 | 1007.4 |
| 20260507162008 | 12 | 149 | 17.7 | 38.6 | 0.00 | 0.15 | 0.15 | 86 | 1007.6 |
| 20260507161503 | 12 | 152 | 16.1 | 38.6 | 0.00 | 0.15 | 0.15 | 87 | 1007.5 |
| 20260507161006 | 12 | 152 | 19.3 | 35.4 | 0.00 | 0.15 | 0.15 | 86 | 1007.8 |
| 20260507160018 | 12 | 205 | 17.7 | 35.4 | 0.00 | 0.15 | 0.15 | 87 | 1008.1 |
| 20260507155008 | 12 | 148 | 19.3 | 37.0 | 0.00 | 0.15 | 0.15 | 89 | 1008.2 |
| 20260507154505 | 12 | 140 | 22.5 | 37.0 | 0.00 | 0.15 | 0.15 | 88 | 1008.2 |
| 20260507154010 | 12 | 169 | 20.9 | 45.1 | 0.00 | 0.15 | 0.15 | 88 | 1008.3 |
| 20260507153606 | 12 | 166 | 24.1 | 45.1 | 0.00 | 0.15 | 0.15 | 88 | 1008.3 |
| 20260507153007 | 12 | 187 | 16.1 | 37.0 | 0.00 | 0.15 | 0.15 | 88 | 1008.5 |
| 20260507152503 | 12 | 142 | 16.1 | 41.8 | 0.00 | 0.15 | 0.15 | 88 | 1008.9 |
| 20260507152008 | 12 | 170 | 20.9 | 41.8 | 0.00 | 0.15 | 0.15 | 88 | 1008.8 |
| 20260507151505 | 12 | 136 | 19.3 | 29.0 | 0.00 | 0.15 | 0.15 | 88 | 1009.3 |
| 20260507151013 | 12 | 164 | 16.1 | 37.0 | 0.00 | 0.15 | 0.15 | 89 | 1009.3 |
| 20260507150507 | 12 | 102 | 14.5 | 37.0 | 0.00 | 0.15 | 0.15 | 89 | 1009.1 |
| 20260507150011 | 12 | 154 | 17.7 | 29.0 | 0.00 | 0.15 | 0.15 | 89 | 1009.2 |
| 20260507145604 | 12 | 160 | 14.5 | 29.0 | 0.00 | 0.15 | 0.15 | 89 | 1009.2 |
| 20260507145008 | 12 | 199 | 11.3 | 22.5 | 0.00 | 0.15 | 0.15 | 89 | 1009.5 |
| 20260507144504 | 12 | 172 | 14.5 | 32.2 | 0.00 | 0.15 | 0.15 | 89 | 1009.4 |
| 20260507144009 | 12 | 149 | 19.3 | 32.2 | 0.00 | 0.15 | 0.15 | 89 | 1009.6 |
| 20260507143503 | 12 | 144 | 16.1 | 30.6 | 0.00 | 0.15 | 0.15 | 90 | 1009.9 |
| 20260507143012 | 12 | 197 | 19.3 | 30.6 | 0.00 | 0.15 | 0.15 | 90 | 1010.0 |
| 20260507142605 | 12 | 120 | 12.9 | 25.7 | 0.00 | 0.15 | 0.15 | 90 | 1010.0 |
| 20260507142010 | 12 | 148 | 17.7 | 32.2 | 0.00 | 0.15 | 0.15 | 89 | 1010.4 |
| 20260507141515 | 12 | 157 | 17.7 | 32.2 | 0.00 | 0.15 | 0.15 | 88 | 1010.6 |
| 20260507141010 | 12 | 177 | 17.7 | 30.6 | 0.00 | 0.15 | 0.15 | 88 | 1010.6 |
| 20260507140505 | 12 | 173 | 16.1 | 30.6 | 0.00 | 0.15 | 0.15 | 88 | 1010.6 |
| 20260507140109 | 12 | 206 | 17.7 | 32.2 | 0.00 | 0.15 | 0.15 | 88 | 1010.4 |
| 20260507135506 | 12 | 142 | 19.3 | 32.2 | 0.00 | 0.15 | 0.15 | 87 | 1010.5 |
| 20260507135009 | 12 | 140 | 17.7 | 32.2 | 0.00 | 0.15 | 0.15 | 87 | 1010.3 |
| 20260507134505 | 12 | 201 | 16.1 | 35.4 | 0.00 | 0.15 | 0.15 | 87 | 1010.4 |
| 20260507134010 | 12 | 173 | 16.1 | 37.0 | 0.00 | 0.15 | 0.15 | 87 | 1010.4 |
| 20260507133006 | 12 | 162 | 17.7 | 35.4 | 0.00 | 0.15 | 0.15 | 87 | 1010.4 |
| 20260507132006 | 12 | 145 | 24.1 | 43.5 | 0.00 | 0.15 | 0.15 | 88 | 1009.9 |
| 20260507131604 | 12 | 149 | 17.7 | 40.2 | 0.00 | 0.15 | 0.15 | 88 | 1010.2 |
| 20260507131008 | 12 | 152 | 17.7 | 40.2 | 0.00 | 0.15 | 0.15 | 88 | 1010.2 |
| 20260507130502 | 12 | 138 | 17.7 | 45.1 | 0.00 | 0.15 | 0.15 | 89 | 1010.5 |
| 20260507130020 | 11 | 125 | 20.9 | 45.1 | 0.00 | 0.15 | 0.15 | 89 | 1010.5 |
| 20260507125510 | 11 | 121 | 17.7 | 40.2 | 0.00 | 0.15 | 0.15 | 90 | 1010.1 |
| 20260507125005 | 11 | 165 | 14.5 | 37.0 | 0.00 | 0.15 | 0.15 | 91 | 1010.0 |
| 20260507124511 | 11 | 118 | 16.1 | 37.0 | 0.00 | 0.15 | 0.15 | 91 | 1009.9 |
| 20260507124005 | 11 | 157 | 16.1 | 37.0 | 0.00 | 0.15 | 0.15 | 91 | 1010.2 |
| 20260507123504 | 11 | 225 | 17.7 | 32.2 | 0.00 | 0.15 | 0.15 | 91 | 1010.6 |
| 20260507123008 | 11 | 161 | 12.9 | 33.8 | 0.00 | 0.15 | 0.15 | 91 | 1010.6 |
| 20260507122504 | 11 | 131 | 16.1 | 33.8 | 0.00 | 0.15 | 0.15 | 91 | 1010.8 |
| 20260507122008 | 11 | 138 | 12.9 | 40.2 | 0.00 | 0.15 | 0.15 | 91 | 1011.2 |
| 20260507121509 | 11 | 186 | 17.7 | 40.2 | 0.00 | 0.15 | 0.15 | 91 | 1011.4 |
| 20260507121006 | 11 | 156 | 17.7 | 35.4 | 0.00 | 0.15 | 0.15 | 91 | 1011.6 |
| 20260507120513 | 11 | 157 | 17.7 | 37.0 | 0.00 | 0.15 | 0.15 | 90 | 1011.6 |
| 20260507120006 | 11 | 128 | 16.1 | 37.0 | 0.00 | 0.15 | 0.15 | 91 | 1011.9 |
| 20260507115506 | 11 | 190 | 14.5 | 32.2 | 0.00 | 0.15 | 0.15 | 91 | 1012.2 |
| 20260507115008 | 11 | 143 | 12.9 | 29.0 | 0.00 | 0.15 | 0.15 | 91 | 1012.3 |
| 20260507114614 | 11 | 173 | 14.5 | 37.0 | 0.00 | 0.15 | 0.15 | 91 | 1012.3 |
| 20260507114005 | 11 | 175 | 16.1 | 37.0 | 0.00 | 0.15 | 0.15 | 91 | 1012.2 |
| 20260507113508 | 11 | 97 | 19.3 | 32.2 | 0.00 | 0.15 | 0.15 | 91 | 1012.0 |
| 20260507112507 | 11 | 168 | 19.3 | 35.4 | 0.00 | 0.15 | 0.15 | 91 | 1012.3 |
| 20260507112105 | 11 | 182 | 19.3 | 33.8 | 0.00 | 0.15 | 0.15 | 92 | 1012.3 |
| 20260507111507 | 11 | 143 | 19.3 | 33.8 | 0.00 | 0.15 | 0.15 | 92 | 1012.0 |
| 20260507111103 | 11 | 131 | 17.7 | 35.4 | 0.00 | 0.15 | 0.15 | 92 | 1011.6 |
| 20260507110505 | 11 | 143 | 16.1 | 35.4 | 0.00 | 0.15 | 0.15 | 92 | 1011.8 |
| 20260507110024 | 11 | 164 | 11.3 | 32.2 | 0.00 | 0.15 | 0.15 | 92 | 1012.1 |
| 20260507105505 | 11 | 137 | 11.3 | 29.0 | 0.00 | 0.15 | 0.15 | 92 | 1012.2 |
| 20260507105008 | 11 | 165 | 9.7 | 25.7 | 0.00 | 0.15 | 0.15 | 92 | 1012.0 |
| 20260507104606 | 11 | 152 | 14.5 | 30.6 | 0.00 | 0.15 | 0.15 | 92 | 1012.3 |
| 20260507104006 | 10 | 145 | 14.5 | 30.6 | 0.00 | 0.15 | 0.15 | 92 | 1013.0 |
| 20260507103507 | 11 | 251 | 11.3 | 27.4 | 0.00 | 0.15 | 0.15 | 92 | 1013.2 |
| 20260507103009 | 11 | 157 | 12.9 | 27.4 | 0.00 | 0.15 | 0.15 | 92 | 1013.4 |
| 20260507102505 | 11 | 203 | 12.9 | 27.4 | 0.00 | 0.15 | 0.15 | 92 | 1013.0 |
| 20260507102008 | 10 | 155 | 12.9 | 24.1 | 0.00 | 0.15 | 0.15 | 93 | 1013.0 |
| 20260507101508 | 10 | 200 | 9.7 | 24.1 | 0.03 | 0.15 | 0.15 | 93 | 1012.8 |
| 20260507100505 | 10 | 193 | 8.0 | 16.1 | 0.03 | 0.15 | 0.15 | 93 | 1012.9 |
| 20260507100013 | 10 | 209 | 6.4 | 17.7 | 0.03 | 0.15 | 0.15 | 93 | 1013.3 |
| 20260507095605 | 10 | 182 | 4.8 | 17.7 | 0.03 | 0.15 | 0.15 | 93 | 1013.2 |
| 20260507095009 | 10 | 132 | 6.4 | 20.9 | 0.03 | 0.15 | 0.15 | 93 | 1013.1 |
| 20260507094605 | 10 | 220 | 8.0 | 20.9 | 0.05 | 0.15 | 0.15 | 93 | 1012.8 |
| 20260507094006 | 10 | 147 | 11.3 | 24.1 | 0.05 | 0.15 | 0.15 | 93 | 1013.1 |
| 20260507093513 | 10 | 210 | 12.9 | 33.8 | 0.05 | 0.15 | 0.15 | 93 | 1013.4 |
| 20260507093022 | 10 | 150 | 14.5 | 33.8 | 0.05 | 0.15 | 0.15 | 93 | 1012.9 |
| 20260507092506 | 10 | 135 | 12.9 | 25.7 | 0.05 | 0.15 | 0.15 | 93 | 1012.9 |
| 20260507092010 | 10 | 125 | 12.9 | 25.7 | 0.08 | 0.15 | 0.15 | 92 | 1012.9 |
| 20260507091008 | 10 | 139 | 9.7 | 22.5 | 0.08 | 0.15 | 0.15 | 92 | 1013.6 |
| 20260507090511 | 10 | 223 | 9.7 | 29.0 | 0.08 | 0.15 | 0.15 | 92 | 1013.5 |
| 20260507090007 | 11 | 154 | 12.9 | 29.0 | 0.10 | 0.15 | 0.15 | 92 | 1013.2 |
| 20260507085510 | 11 | 166 | 8.0 | 32.2 | 0.13 | 0.15 | 0.15 | 92 | 1013.3 |
| 20260507085006 | 11 | 186 | 11.3 | 32.2 | 0.10 | 0.13 | 0.13 | 92 | 1013.4 |
| 20260507084518 | 11 | 168 | 12.9 | 27.4 | 0.10 | 0.13 | 0.13 | 92 | 1013.4 |
| 20260507084007 | 11 | 137 | 11.3 | 27.4 | 0.13 | 0.13 | 0.13 | 92 | 1013.3 |
| 20260507083605 | 11 | 147 | 14.5 | 25.7 | 0.10 | 0.10 | 0.10 | 92 | 1013.4 |
| 20260507083009 | 11 | 135 | 12.9 | 29.0 | 0.10 | 0.10 | 0.10 | 92 | 1013.1 |
| 20260507082506 | 11 | 191 | 11.3 | 30.6 | 0.10 | 0.10 | 0.10 | 92 | 1013.1 |
| 20260507082007 | 11 | 195 | 12.9 | 30.6 | 0.05 | 0.05 | 0.05 | 92 | 1013.3 |
| 20260507081511 | 11 | 156 | 12.9 | 25.7 | 0.05 | 0.05 | 0.05 | 92 | 1013.3 |
| 20260507081009 | 11 | 145 | 12.9 | 25.7 | 0.05 | 0.05 | 0.05 | 92 | 1013.4 |
| 20260507080007 | 10 | 128 | 9.7 | 22.5 | 0.05 | 0.05 | 0.05 | 92 | 1013.9 |
| 20260507075603 | 10 | 124 | 8.0 | 22.5 | 0.05 | 0.05 | 0.05 | 92 | 1014.1 |
| 20260507075009 | 10 | 175 | 8.0 | 17.7 | 0.03 | 0.03 | 0.03 | 91 | 1014.1 |
| 20260507074615 | 10 | 141 | 8.0 | 20.9 | 0.03 | 0.03 | 0.03 | 91 | 1014.1 |
| 20260507074007 | 10 | 169 | 8.0 | 22.5 | 0.00 | 0.00 | 0.00 | 91 | 1014.2 |
| 20260507073503 | 10 | 156 | 11.3 | 22.5 | 0.00 | 0.00 | 0.00 | 91 | 1014.2 |
| 20260507073008 | 10 | 123 | 11.3 | 20.9 | 0.00 | 0.00 | 0.00 | 91 | 1014.3 |
| 20260507072009 | 11 | 145 | 6.4 | 17.7 | 0.00 | 0.00 | 0.00 | 91 | 1014.3 |
| 20260507071606 | 11 | 136 | 8.0 | 19.3 | 0.00 | 0.00 | 0.00 | 91 | 1014.2 |
| 20260507071008 | 11 | 202 | 11.3 | 19.3 | 0.00 | 0.00 | 0.00 | 92 | 1014.1 |
| 20260507070511 | 11 | 172 | 6.4 | 16.1 | 0.00 | 0.00 | 0.00 | 92 | 1014.3 |
| 20260507070009 | 11 | 136 | 1.6 | 16.1 | 0.00 | 0.00 | 0.00 | 92 | 1014.5 |
| 20260507065510 | 11 | 219 | 4.8 | 17.7 | 0.00 | 0.00 | 0.00 | 92 | 1014.8 |
| 20260507065004 | 11 | 138 | 9.7 | 17.7 | 0.00 | 0.00 | 0.00 | 92 | 1014.6 |
| 20260507064509 | 11 | 209 | 6.4 | 19.3 | 0.00 | 0.00 | 0.00 | 92 | 1014.7 |
| 20260507064105 | 11 | 145 | 8.0 | 19.3 | 0.00 | 0.00 | 0.00 | 92 | 1014.8 |
| 20260507063508 | 11 | 173 | 4.8 | 12.9 | 0.00 | 0.00 | 0.00 | 91 | 1014.9 |
| 20260507063018 | 11 | 186 | 4.8 | 12.9 | 0.00 | 0.00 | 0.00 | 91 | 1015.0 |
| 20260507062508 | 11 | 175 | 3.2 | 9.7 | 0.00 | 0.00 | 0.00 | 92 | 1015.0 |
| 20260507062003 | 11 | 236 | 3.2 | 12.9 | 0.00 | 0.00 | 0.00 | 91 | 1015.1 |
| 20260507061508 | 11 | 223 | 6.4 | 12.9 | 0.00 | 0.00 | 0.00 | 91 | 1015.2 |
| 20260507060507 | 11 | 268 | 8.0 | 14.5 | 0.00 | 0.00 | 0.00 | 91 | 1015.2 |
| 20260507055507 | 11 | 171 | 3.2 | 12.9 | 0.00 | 0.00 | 0.00 | 91 | 1015.2 |
| 20260507055104 | 11 | 199 | 8.0 | 14.5 | 0.00 | 0.00 | 0.00 | 91 | 1015.2 |
| 20260507054508 | 11 | 174 | 6.4 | 14.5 | 0.00 | 0.00 | 0.00 | 92 | 1015.3 |
| 20260507053508 | 11 | 143 | 1.6 | 12.9 | 0.00 | 0.00 | 0.00 | 92 | 1015.5 |
| 20260507053007 | 11 | 192 | 6.4 | 12.9 | 0.00 | 0.00 | 0.00 | 92 | 1015.5 |
| 20260507052509 | 11 | 180 | 6.4 | 12.9 | 0.00 | 0.00 | 0.00 | 92 | 1015.6 |
| 20260507052011 | 11 | 235 | 6.4 | 14.5 | 0.00 | 0.00 | 0.00 | 92 | 1015.7 |
| 20260507051508 | 11 | 175 | 6.4 | 14.5 | 0.00 | 0.00 | 0.00 | 92 | 1015.9 |
| 20260507051010 | 11 | 194 | 8.0 | 16.1 | 0.00 | 0.00 | 0.00 | 92 | 1016.0 |
| 20260507050506 | 11 | 160 | 6.4 | 16.1 | 0.00 | 0.00 | 0.00 | 92 | 1016.1 |
| 20260507050011 | 11 | 248 | 4.8 | 16.1 | 0.00 | 0.00 | 0.00 | 92 | 1016.2 |
| 20260507045542 | 11 | 178 | 6.4 | 16.1 | 0.00 | 0.00 | 0.00 | 92 | 1016.2 |
| 20260507045007 | 11 | 211 | 4.8 | 12.9 | 0.00 | 0.00 | 0.00 | 92 | 1016.4 |
| 20260507044514 | 11 | 206 | 8.0 | 12.9 | 0.00 | 0.00 | 0.00 | 92 | 1016.4 |